This is the latest recevied weather packets stored in our database for station/object SV9TNF-2. If no packets are shown the sender has not sent any weather packets the latest 10 day(s).
| Time | Temp. | Humidity | Pressure | Rain* | Wind** | Luminosity | Snow |
|---|---|---|---|---|---|---|---|
| 1777875317 | 16.11° C | 52% | 1025.7 hPa | 0 mm | 26.38 m/s, 14° | - | - |
| 1777875017 | 16.11° C | 55% | 1025.7 hPa | 0 mm | 16.99 m/s, 14° | - | - |
| 1777874716 | 16.11° C | 54% | 1025.7 hPa | 0 mm | 24.59 m/s, 321° | - | - |
| 1777874416 | 15.56° C | 54% | 1025.4 hPa | 0 mm | 22.8 m/s, 60° | - | - |
| 1777874116 | 16.11° C | 53% | 1025.4 hPa | 0 mm | 22.35 m/s, 12° | - | - |
| 1777873816 | 16.67° C | 56% | 1025.4 hPa | 0 mm | 12.07 m/s, 47° | - | - |
| 1777873516 | 15.56° C | 53% | 1025.4 hPa | 0 mm | 28.61 m/s, 24° | - | - |
| 1777873216 | 15.56° C | 57% | 1025.4 hPa | 0 mm | 8.05 m/s, 74° | - | - |
| 1777872915 | 16.11° C | 55% | 1025.4 hPa | 0 mm | 16.54 m/s, 80° | - | - |
| 1777872616 | 15.56° C | 55% | 1025.4 hPa | 0 mm | 15.65 m/s, 2° | - | - |
| 1777872315 | 15° C | 57% | 1025.4 hPa | 0 mm | 12.07 m/s, 225° | - | - |
| 1777872015 | 15.56° C | 61% | 1025.1 hPa | 0 mm | 19.22 m/s, 99° | - | - |
| 1777871715 | 15.56° C | 58% | 1025.1 hPa | 0 mm | 16.99 m/s, 83° | - | - |
| 1777871415 | 15° C | 59% | 1025.1 hPa | 0 mm | 17.43 m/s, 23° | - | - |
| 1777871115 | 15.56° C | 57% | 1025.1 hPa | 0 mm | 14.75 m/s, 0° | - | - |
| 1777870815 | 15° C | 60% | 1025.1 hPa | 0 mm | 18.33 m/s, 57° | - | - |
| 1777870515 | 15° C | 58% | 1025.1 hPa | 0 mm | 18.78 m/s, 2° | - | - |
| 1777870214 | 15.56° C | 61% | 1025.1 hPa | 0 mm | 20.12 m/s, 42° | - | - |
| 1777869914 | 15.56° C | 59% | 1024.7 hPa | 0 mm | 10.28 m/s, 109° | - | - |
| 1777869614 | 15° C | 58% | 1024.7 hPa | 0 mm | 16.09 m/s, 1° | - | - |
| 1777869314 | 15.56° C | 61% | 1024.7 hPa | 0 mm | 8.94 m/s, 22° | - | - |
| 1777869014 | 15° C | 58% | 1024.7 hPa | 0 mm | 8.94 m/s, 10° | - | - |
| 1777868714 | 15° C | 57% | 1024.7 hPa | 0 mm | 12.52 m/s, 18° | - | - |
| 1777868414 | 15° C | 59% | 1024.7 hPa | 0 mm | 12.52 m/s, 50° | - | - |
| 1777868114 | 15° C | 61% | 1024.7 hPa | 0 mm | 16.54 m/s, 355° | - | - |
* Rain latest hour (hover to see other rain measurements)
** Current wind speed in m/s (hover to see current wind gust speed)